Regional Weather Roundup
Issued by NWS Charleston, SC

Home | Current Version | Previous Version | Text Only | Print | Product List | Glossary On
Versions: 1 2 3 4 5 6 7 8 9 10 11 12 13 14 15 16 17 18 19 20 21 22 23 24 25 26 27 28 29 30 31 32 33 34 35 36 37 38 39 40 41 42 43 44 45 46 47 48 49 50
000
ASUS42 KCHS 230627
RWRCHS

REGIONAL WEATHER ROUNDUP
NATIONAL WEATHER SERVICE CHARLESTON SC
200 AM EDT THU MAR 23 2017

NOTE: "FAIR" INDICATES FEW OR NO CLOUDS BELOW 12,000 FEET WITH NO
SIGNIFICANT WEATHER AND/OR OBSTRUCTIONS TO VISIBILITY.

NOT ALL STATIONS ARE QUALITY CONTROLLED. USE DATA WITH CAUTION...
ESPECIALLY DEWPOINT OBSERVATIONS.

SCZ027-030-031-034>040-042>050-230700-
...SOUTHEAST SOUTH CAROLINA...

CITY           SKY/WX    TMP DP  RH WIND       PRES   REMARKS
N CHARLESTON   PTCLDY    54  41  61 E18G26    30.34R
6HR MIN TEMP:  54; 6HR MAX TEMP:  61;

WATERFRONT PRK   N/A     57  48  72 NE20      30.31R
JOHNS ISLAND   FAIR      55  43  62 NE20G28   30.34R
PINOPOLIS        N/A     54  45  71 E14       30.27R
MONCKS CORNER  FAIR      52  37  58 E10G18    30.37R
SUMMERVILLE    FAIR      54  43  66 NE7       30.36R
BEAUFORT MCAS  PTCLDY    58  52  80 E9G18     30.31R
6HR MIN TEMP:  58; 6HR MAX TEMP:  63;

BEAUFORT ARPT  FAIR      57  50  77 NE16G22   30.30S
HILTON HEAD IS PTCLDY   N/A N/A N/A NE13G23   30.31R
WALTERBORO     CLEAR     52  46  82 E10G16    30.35R
ALLENDALE      FAIR      54  36  50 CALM      30.32R

...SOUTHERN MIDLANDS AND PEE DEE...

CITY           SKY/WX    TMP DP  RH WIND       PRES   REMARKS
GEORGETOWN     FAIR      50  37  62 NE12G20   30.39S
KINGSTREE      FAIR      46  36  66 E7        30.40R
ORANGEBURG     CLEAR     51  38  60 E6        30.35R
6HR MIN TEMP:  50; 6HR MAX TEMP:  62;

BARNWELL       FAIR      52  34  50 NE5       30.34R
AIKEN          FAIR      46  30  53 NE7       30.37R
MANNING        FAIR      50  39  66 E6        30.39R
COLUMBIA       CLEAR     53  28  38 E12       30.36R
6HR MIN TEMP:  53; 6HR MAX TEMP:  63;

SUMTER         MOCLDY    51  29  42 E9        30.36R
6HR MIN TEMP:  45; 6HR MAX TEMP:  58; 6HR PCP: TRACE;

FLORENCE       CLEAR     47  24  40 E10       30.40S
6HR MIN TEMP:  46; 6HR MAX TEMP:  55;

MYRTLE BEACH   CLEAR     47  33  58 NE9       30.42R
N MYRTLE BEACH CLEAR     44  33  65 NE9       30.40R
6HR MIN TEMP:  44; 6HR MAX TEMP:  56;


$$

GAZ063-065-086>088-099>101-113>116-118-119-134>141-150-230700-
...SOUTHEAST GEORGIA...

CITY           SKY/WX    TMP DP  RH WIND       PRES   REMARKS
SAVANNAH ARPT  CLEAR     57  51  80 NE7       30.29R
6HR MIN TEMP:  57; 6HR MAX TEMP:  64;

HUNTER AAF     CLEAR     59  54  84 NE7       30.26R
6HR MIN TEMP:  59; 6HR MAX TEMP:  63;

FORT STEWART   CLEAR     59  52  77 NE6       30.26R
6HR MIN TEMP:  59; 6HR MAX TEMP:  64;

STATESBORO     MOCLDY    57  41  55 CALM      30.31R
SYLVANIA       MOCLDY   N/A N/A N/A E8        30.32S
CLAXTON        FAIR     N/A N/A N/A N5        30.30R

...CSRA...CENTRAL AND FAR SOUTHEAST GEORGIA...

CITY           SKY/WX    TMP DP  RH WIND       PRES   REMARKS
THOMSON        MOCLDY    50  36  59 MISG      30.38R
AUGUSTA-BUSH   PTCLDY    55  30  38 E5        30.33R
6HR MIN TEMP:  55; 6HR MAX TEMP:  66;

AUGUSTA-DANIEL MOCLDY    55  27  34 E7        30.33R
SWAINSBORO     CLOUDY    59  32  36 E7        30.32R
VIDALIA        CLOUDY    61  50  67 E10       30.30R
EASTMAN        CLOUDY    63  40  43 E6        30.31R
HAZLEHURST     FAIR      61  54  78 NE6       30.27S
ALMA           PTCLDY    60  55  83 E5        30.26R
6HR MIN TEMP:  60; 6HR MAX TEMP:  74;

WAYCROSS       CLEAR     62  60  92 E6        30.26R
JESUP          FAIR      59  54  82 E6        30.27R
BAXLEY         FAIR      61  57  88 NE6       30.27S
BRUNSWICK      PTCLDY    61  59  94 NE10      30.26R
SAINT SIMONS   PTCLDY    63  55  75 NE13      30.24R
6HR MIN TEMP:  63; 6HR MAX TEMP:  64;


$$

SCZ027-028-034-036>038-045-046-048>050-GAZ119-141-230700-
...LAKE AND SUPPLEMENTAL COASTAL OBSERVATIONS...

STATION/POSITION TIME  TEMP    WIND        PRES    WAVE   SWELL
                       AIR SEA DIR/SP/G            HT/PER HT/PER/DIR
                 (UTC) (F)     (DEG/KT/KT) (MB)    (FT/S) (FT/S/D)
WINYAH BAY       0545   53      60/ 16     1028.0S
LAKE MURRAY      0550   53      70/  7/ 14 1027.1R
ACE BASIN NERRS  0545   57      50/  6     1026.0S
FORT PULASKI     0600   61 61   70/ 19/ 25 1025.8
SAPELO ISLAND    0600   61      50/ 11     1024.0

$$

ANZ835-935-AMZ111-154-330-350-352-354-370-450-454-472-230700-
...C-MAN AND BUOY OBSERVATIONS...

STATION/POSITION TIME  TEMP    WIND        PRES    WAVE   SWELL
                       AIR SEA DIR/SP/G            HT/PER HT/PER/DIR
                 (UTC) (F)     (DEG/KT/KT) (MB)    (FT/S) (FT/S/D)
BUOY 41004       0550   61 66   40/ 27/ 31 1025.2R   7/ 6   3/ 70/10
BUOY 41008       0550   64 62   60/ 17/ 21 1023.7R   5/ 7   2/ 90/11
FOLLY BEACH CMAN 0600   58      50/ 25/ 30 1027.6R
CAPERS NEARSHORE 0508   58      60/ 23/ 31 1026.9R
FRIPP NEARSHORE  0608   60 61   60/ 23/ 29 1025.8R


STATION/POSITION TIME  TEMP    WIND        PRES    WAVE   SWELL
                       AIR SEA DIR/SP/G            HT/PER HT/PER/DIR
                 (UTC) (F)     (DEG/KT/KT) (MB)    (FT/S) (FT/S/D)
5E ST. MARYS GA  0600      63                N/A     4/ 6
FRYING PAN BUOY  0610   55 63   40/ 23/ 31 1028.5
BUOY 41025       0550   47 74   20/ 21/ 27 1030.0R   9/10   7/ 60/10
CAPE LOOKOUT NC  0600   45      30/ 12/ 16 1030.2R
BUOY 41002       0550   61 72   20/ 25/ 31 1023.9R   9/ 9   7/ 30/ 9
BUOY 41010       NOT AVBL
ST AUGUSTINE FL  0600   67 66   30/  9/ 10 1022.9S


$$




USA.gov is the U.S. government's official web portal to all federal, state and local government web resources and services.